DHK348 EDDN-EKCH

Flight info

Callsign DHK348
Flight time 1h 9m
Altitude 36000
Route ERETO1G/28 ERETO DCT LONLI M726 OKKOC/N0442F380 M726 ROSOK Q296 MONAK
Aircraft A333/H-SDE3GHIJ2J3J5M1RVWXY/LB2D1

Departure

Time 2026-04-24 12:41
Airport Nuremberg Airport (EDDN)

Arrival

Time 2026-04-24 13:50
Airport Copenhagen Kastrup Airport (EKCH)
Time Latitude Longitude Altitude Speed Heading
2026-04-24 12:11 49.49666 11.06898 1027 ft 0 kts 187°
2026-04-24 12:31 49.49663 11.06897 1027 ft 1 kts 187°
2026-04-24 12:32 49.49632 11.06905 1028 ft 7 kts 155°
2026-04-24 12:32 49.49599 11.06993 1026 ft 12 kts 109°
2026-04-24 12:32 49.49587 11.07137 1026 ft 14 kts 92°
2026-04-24 12:32 49.49619 11.07227 1030 ft 9 kts 52°
2026-04-24 12:33 49.49631 11.07320 1031 ft 10 kts 97°
2026-04-24 12:33 49.49620 11.07430 1033 ft 11 kts 98°
2026-04-24 12:33 49.49609 11.07549 1032 ft 12 kts 98°
2026-04-24 12:33 49.49606 11.07572 1032 ft 0 kts 98°
2026-04-24 12:35 49.49606 11.07573 1032 ft 1 kts 98°
2026-04-24 12:35 49.49601 11.07623 1030 ft 9 kts 99°
2026-04-24 12:35 49.49586 11.07772 1030 ft 19 kts 98°
2026-04-24 12:35 49.49563 11.08008 1035 ft 25 kts 98°
2026-04-24 12:36 49.49538 11.08260 1038 ft 13 kts 98°
2026-04-24 12:36 49.49554 11.08328 1040 ft 6 kts 37°
2026-04-24 12:36 49.49603 11.08384 1040 ft 12 kts 56°
2026-04-24 12:36 49.49605 11.08534 1043 ft 17 kts 97°
2026-04-24 12:37 49.49585 11.08747 1046 ft 23 kts 98°
2026-04-24 12:37 49.49560 11.09005 1050 ft 14 kts 99°
2026-04-24 12:37 49.49558 11.09024 1050 ft 2 kts 98°
2026-04-24 12:37 49.49554 11.09059 1051 ft 4 kts 98°
2026-04-24 12:38 49.49549 11.09113 1051 ft 6 kts 98°
2026-04-24 12:38 49.49540 11.09209 1053 ft 11 kts 98°
2026-04-24 12:38 49.49534 11.09326 1056 ft 11 kts 84°
2026-04-24 12:39 49.49585 11.09473 1061 ft 0 kts 54°
2026-04-24 12:39 49.49586 11.09475 1061 ft 2 kts 54°
2026-04-24 12:40 49.49620 11.09537 1063 ft 13 kts 41°
2026-04-24 12:40 49.49680 11.09561 1065 ft 5 kts 330°
2026-04-24 12:40 49.49701 11.09494 1063 ft 0 kts 282°
2026-04-24 12:41 49.49703 11.09483 1065 ft 4 kts 282°
2026-04-24 12:41 49.49736 11.09150 1057 ft 77 kts 279°
2026-04-24 12:41 49.49868 11.07828 1105 ft 170 kts 280°
2026-04-24 12:41 49.50086 11.05862 2015 ft 197 kts 279°
2026-04-24 12:42 49.50290 11.03736 3027 ft 207 kts 280°
2026-04-24 12:42 49.50512 11.01397 3695 ft 233 kts 280°
2026-04-24 12:42 49.50759 10.98816 4568 ft 251 kts 281°
2026-04-24 12:42 49.51141 10.96209 5633 ft 255 kts 293°
2026-04-24 12:43 49.52104 10.93955 6452 ft 253 kts 318°
2026-04-24 12:43 49.53629 10.92647 6959 ft 256 kts 344°
2026-04-24 12:43 49.55421 10.92374 7259 ft 261 kts 358°
2026-04-24 12:43 49.57250 10.92451 7941 ft 265 kts
2026-04-24 12:44 49.59108 10.92552 9112 ft 269 kts
2026-04-24 12:44 49.60989 10.92640 10328 ft 272 kts
2026-04-24 12:44 49.62889 10.92712 11283 ft 282 kts 360°
2026-04-24 12:44 49.64944 10.92776 11820 ft 307 kts 360°
2026-04-24 12:45 49.67139 10.92843 12583 ft 320 kts
2026-04-24 12:45 49.69379 10.93270 13608 ft 328 kts 13°
2026-04-24 12:45 49.71483 10.94721 14567 ft 337 kts 31°
2026-04-24 12:45 49.73366 10.96964 15452 ft 344 kts 38°
2026-04-24 12:46 49.75195 10.99405 16369 ft 350 kts 39°
2026-04-24 12:46 49.77020 11.01868 17233 ft 355 kts 39°
2026-04-24 12:46 49.78907 11.04404 18155 ft 360 kts 38°
2026-04-24 12:46 49.80818 11.06960 18959 ft 365 kts 38°
2026-04-24 12:47 49.82731 11.09591 19755 ft 370 kts 43°
2026-04-24 12:47 49.84357 11.12720 20536 ft 378 kts 56°
2026-04-24 12:47 49.85613 11.16341 21303 ft 383 kts 61°
2026-04-24 12:47 49.86897 11.19981 22054 ft 386 kts 55°
2026-04-24 12:48 49.88520 11.23224 22780 ft 387 kts 43°
2026-04-24 12:48 49.90581 11.25922 23490 ft 388 kts 31°
2026-04-24 12:48 49.92974 11.27879 24132 ft 389 kts 19°
2026-04-24 12:48 49.95581 11.29007 24743 ft 389 kts
2026-04-24 12:49 49.98288 11.29257 25307 ft 391 kts 355°
2026-04-24 12:49 50.00951 11.28621 25883 ft 393 kts 344°
2026-04-24 12:49 50.03507 11.27105 26464 ft 395 kts 332°
2026-04-24 12:49 50.05855 11.24838 27017 ft 399 kts 327°
2026-04-24 12:50 50.08329 11.22828 27580 ft 403 kts 337°
2026-04-24 12:50 50.11040 11.21609 28145 ft 407 kts 349°
2026-04-24 12:50 50.13889 11.21463 28714 ft 414 kts
2026-04-24 12:50 50.16706 11.22561 29234 ft 422 kts 20°
2026-04-24 12:51 50.19415 11.24388 29764 ft 425 kts 17°
2026-04-24 12:51 50.22292 11.25440 30277 ft 426 kts
2026-04-24 12:51 50.25229 11.26141 30710 ft 429 kts
2026-04-24 12:51 50.28156 11.26764 31149 ft 432 kts
2026-04-24 12:52 50.31147 11.27379 31623 ft 434 kts
2026-04-24 12:52 50.34147 11.27990 32252 ft 432 kts
2026-04-24 12:52 50.37123 11.28596 32896 ft 430 kts
2026-04-24 12:52 50.40091 11.29198 33506 ft 429 kts
2026-04-24 12:53 50.43049 11.29799 34101 ft 428 kts
2026-04-24 12:53 50.45999 11.30398 34604 ft 427 kts
2026-04-24 12:53 50.48908 11.30989 35066 ft 426 kts
2026-04-24 12:53 50.51854 11.31588 35546 ft 426 kts
2026-04-24 12:54 50.54795 11.32188 35983 ft 426 kts
2026-04-24 12:54 50.57750 11.32790 36158 ft 427 kts
2026-04-24 12:54 50.60699 11.33392 36181 ft 426 kts
2026-04-24 12:55 50.66542 11.34588 36178 ft 426 kts
2026-04-24 12:55 50.72423 11.35794 36178 ft 426 kts
2026-04-24 12:56 50.78301 11.37003 36190 ft 426 kts
2026-04-24 12:56 50.84184 11.38216 36181 ft 426 kts
2026-04-24 12:57 50.90062 11.39431 36183 ft 426 kts
2026-04-24 12:58 51.07418 11.43037 36186 ft 425 kts
2026-04-24 12:59 51.13250 11.44256 36190 ft 427 kts
2026-04-24 12:59 51.19169 11.45493 36186 ft 429 kts
2026-04-24 13:00 51.25086 11.46735 36198 ft 429 kts
2026-04-24 13:00 51.30963 11.47974 36187 ft 428 kts
2026-04-24 13:01 51.36891 11.49223 36184 ft 428 kts
2026-04-24 13:01 51.42766 11.50465 36182 ft 428 kts
2026-04-24 13:02 51.48683 11.51719 36189 ft 428 kts
2026-04-24 13:02 51.54582 11.52974 36176 ft 427 kts
2026-04-24 13:03 51.60483 11.54232 36173 ft 427 kts
2026-04-24 13:03 51.66373 11.55491 36169 ft 427 kts
2026-04-24 13:04 51.72234 11.56747 36175 ft 427 kts
2026-04-24 13:04 51.78129 11.58015 36160 ft 426 kts
2026-04-24 13:05 51.84014 11.59282 36157 ft 425 kts
2026-04-24 13:05 51.89848 11.60542 36168 ft 425 kts
2026-04-24 13:06 51.95738 11.61817 36167 ft 425 kts
2026-04-24 13:06 52.01608 11.63092 36165 ft 425 kts
2026-04-24 13:07 52.07441 11.64362 36179 ft 425 kts
2026-04-24 13:07 52.13314 11.65644 36170 ft 425 kts
2026-04-24 13:08 52.19136 11.66918 36179 ft 425 kts
2026-04-24 13:08 52.24999 11.68205 36164 ft 425 kts
2026-04-24 13:09 52.33798 11.70143 36158 ft 425 kts
2026-04-24 13:09 52.39665 11.71439 36160 ft 425 kts
2026-04-24 13:10 52.45495 11.72731 36160 ft 424 kts
2026-04-24 13:10 52.51359 11.74034 36153 ft 424 kts
2026-04-24 13:11 52.57210 11.75337 36142 ft 424 kts
2026-04-24 13:11 52.63017 11.76633 36144 ft 424 kts
2026-04-24 13:12 52.68874 11.77945 36142 ft 423 kts
2026-04-24 13:12 52.74707 11.79255 36139 ft 422 kts
2026-04-24 13:13 52.80524 11.80564 36130 ft 422 kts
2026-04-24 13:13 52.86311 11.81870 36127 ft 422 kts
2026-04-24 13:14 52.92123 11.83185 36127 ft 422 kts
2026-04-24 13:14 52.96967 11.84285 36118 ft 422 kts
2026-04-24 13:15 53.02793 11.85610 36124 ft 422 kts
2026-04-24 13:15 53.08617 11.86937 36125 ft 422 kts
2026-04-24 13:16 53.14405 11.88261 36129 ft 422 kts
2026-04-24 13:16 53.20231 11.89598 36116 ft 421 kts
2026-04-24 13:17 53.26035 11.90932 36113 ft 420 kts
2026-04-24 13:17 53.31799 11.92261 36109 ft 420 kts
2026-04-24 13:18 53.37601 11.93602 36108 ft 420 kts
2026-04-24 13:18 53.43400 11.94948 36105 ft 419 kts
2026-04-24 13:19 53.49147 11.96284 36097 ft 419 kts
2026-04-24 13:19 53.54930 11.97631 36103 ft 420 kts
2026-04-24 13:20 53.60719 11.98983 36092 ft 422 kts
2026-04-24 13:20 53.66543 12.00349 36097 ft 422 kts
2026-04-24 13:21 53.72358 12.01718 36073 ft 420 kts
2026-04-24 13:21 53.75244 12.02399 35617 ft 418 kts
2026-04-24 13:21 53.78121 12.03079 35044 ft 417 kts
2026-04-24 13:22 53.81000 12.03758 34432 ft 417 kts
2026-04-24 13:22 53.83847 12.04430 33742 ft 418 kts
2026-04-24 13:22 53.86736 12.05112 33005 ft 420 kts
2026-04-24 13:22 53.89638 12.05799 32277 ft 421 kts
2026-04-24 13:23 53.92541 12.06489 31597 ft 420 kts
2026-04-24 13:23 53.95454 12.07183 30846 ft 421 kts
2026-04-24 13:23 53.98313 12.07864 30186 ft 420 kts
2026-04-24 13:23 54.01202 12.08555 29475 ft 417 kts
2026-04-24 13:24 54.04070 12.09242 28825 ft 414 kts
2026-04-24 13:24 54.06910 12.09923 28188 ft 410 kts
2026-04-24 13:24 54.09722 12.10598 27570 ft 406 kts
2026-04-24 13:24 54.12500 12.11265 26970 ft 402 kts
2026-04-24 13:25 54.15227 12.11921 26433 ft 398 kts
2026-04-24 13:25 54.17949 12.12577 25926 ft 392 kts
2026-04-24 13:25 54.20634 12.13224 25364 ft 388 kts
2026-04-24 13:25 54.23302 12.13866 24781 ft 385 kts
2026-04-24 13:26 54.25951 12.14505 24216 ft 382 kts
2026-04-24 13:26 54.28570 12.15138 23663 ft 379 kts
2026-04-24 13:26 54.31175 12.15768 23015 ft 375 kts
2026-04-24 13:26 54.33754 12.16392 22381 ft 372 kts
2026-04-24 13:27 54.36276 12.17004 21770 ft 368 kts
2026-04-24 13:27 54.38800 12.17617 21165 ft 365 kts
2026-04-24 13:27 54.41306 12.18227 20621 ft 361 kts
2026-04-24 13:27 54.43785 12.18831 20033 ft 357 kts
2026-04-24 13:28 54.46240 12.19429 19432 ft 354 kts
2026-04-24 13:28 54.48682 12.20024 18850 ft 351 kts
2026-04-24 13:28 54.51061 12.20605 18284 ft 348 kts
2026-04-24 13:28 54.53453 12.21191 17639 ft 345 kts
2026-04-24 13:29 54.55821 12.21772 17010 ft 341 kts
2026-04-24 13:29 54.58163 12.22347 16418 ft 338 kts
2026-04-24 13:29 54.60478 12.22916 15828 ft 334 kts
2026-04-24 13:29 54.62771 12.23480 15235 ft 330 kts
2026-04-24 13:30 54.65042 12.24040 14669 ft 327 kts
2026-04-24 13:30 54.67258 12.24586 14082 ft 324 kts
2026-04-24 13:30 54.69485 12.25135 13463 ft 321 kts
2026-04-24 13:30 54.71692 12.25680 12812 ft 318 kts
2026-04-24 13:31 54.73874 12.26219 12180 ft 315 kts
2026-04-24 13:31 54.76038 12.26755 11544 ft 313 kts
2026-04-24 13:31 54.78184 12.27286 10948 ft 310 kts
2026-04-24 13:31 54.80306 12.27813 10341 ft 307 kts
2026-04-24 13:32 54.82370 12.28327 9984 ft 297 kts
2026-04-24 13:32 54.84371 12.28828 9781 ft 282 kts
2026-04-24 13:32 54.86281 12.29306 9480 ft 272 kts
2026-04-24 13:32 54.88145 12.29770 9051 ft 268 kts
2026-04-24 13:33 54.89968 12.30221 8585 ft 266 kts
2026-04-24 13:33 54.91801 12.30676 8129 ft 265 kts
2026-04-24 13:33 54.93613 12.31234 7680 ft 264 kts 11°
2026-04-24 13:33 54.95333 12.32378 7236 ft 267 kts 24°
2026-04-24 13:34 54.96923 12.34064 6817 ft 266 kts 29°
2026-04-24 13:34 54.98454 12.35860 6391 ft 265 kts 30°
2026-04-24 13:34 54.99970 12.37660 5950 ft 263 kts 30°
2026-04-24 13:34 55.01459 12.39416 5542 ft 260 kts 30°
2026-04-24 13:35 55.02954 12.41174 5111 ft 258 kts 30°
2026-04-24 13:35 55.04443 12.42917 4666 ft 256 kts 30°
2026-04-24 13:35 55.05920 12.44644 4198 ft 255 kts 30°
2026-04-24 13:35 55.07394 12.46369 3749 ft 254 kts 30°
2026-04-24 13:36 55.08845 12.48066 3285 ft 253 kts 30°
2026-04-24 13:36 55.10305 12.49776 3007 ft 253 kts 30°
2026-04-24 13:36 55.11773 12.51496 2980 ft 254 kts 30°
2026-04-24 13:36 55.13243 12.53219 2979 ft 254 kts 30°
2026-04-24 13:37 55.14710 12.54942 2983 ft 252 kts 29°
2026-04-24 13:37 55.16158 12.56646 2982 ft 248 kts 29°
2026-04-24 13:37 55.17577 12.58315 2984 ft 249 kts 29°
2026-04-24 13:37 55.19017 12.60010 2982 ft 249 kts 29°
2026-04-24 13:38 55.20456 12.61704 2979 ft 250 kts 30°
2026-04-24 13:38 55.21898 12.63405 2979 ft 249 kts 30°
2026-04-24 13:38 55.23359 12.65056 2976 ft 248 kts 26°
2026-04-24 13:38 55.24837 12.66533 2975 ft 248 kts 24°
2026-04-24 13:39 55.26353 12.67997 2972 ft 248 kts 24°
2026-04-24 13:39 55.27868 12.69454 2975 ft 247 kts 24°
2026-04-24 13:39 55.29374 12.70905 2975 ft 248 kts 24°
2026-04-24 13:39 55.30890 12.72368 2973 ft 248 kts 24°
2026-04-24 13:40 55.32422 12.73774 2973 ft 246 kts 19°
2026-04-24 13:40 55.34028 12.74503 2973 ft 235 kts
2026-04-24 13:40 55.35571 12.74201 2975 ft 214 kts 342°
2026-04-24 13:40 55.36862 12.73048 2990 ft 206 kts 324°
2026-04-24 13:41 55.37873 12.71303 2999 ft 200 kts 313°
2026-04-24 13:41 55.38729 12.69435 2993 ft 190 kts 310°
2026-04-24 13:41 55.39533 12.67613 2986 ft 187 kts 310°
2026-04-24 13:41 55.40336 12.65803 2984 ft 188 kts 310°
2026-04-24 13:42 55.41132 12.64017 2980 ft 188 kts 310°
2026-04-24 13:42 55.41853 12.62104 2979 ft 185 kts 301°
2026-04-24 13:42 55.42262 12.59989 2830 ft 181 kts 285°
2026-04-24 13:42 55.42278 12.57767 2490 ft 184 kts 267°
2026-04-24 13:43 55.41876 12.55596 2117 ft 190 kts 247°
2026-04-24 13:43 55.41060 12.53714 1985 ft 197 kts 231°
2026-04-24 13:43 55.40123 12.51968 1976 ft 192 kts 236°
2026-04-24 13:43 55.39463 12.50031 1979 ft 180 kts 254°
2026-04-24 13:44 55.39223 12.47973 1987 ft 169 kts 272°
2026-04-24 13:44 55.39376 12.45968 1987 ft 164 kts 290°
2026-04-24 13:44 55.39872 12.44183 1985 ft 162 kts 307°
2026-04-24 13:44 55.40647 12.42763 1986 ft 160 kts 322°
2026-04-24 13:45 55.41623 12.41825 1984 ft 161 kts 338°
2026-04-24 13:45 55.42725 12.41441 1985 ft 163 kts 354°
2026-04-24 13:45 55.43855 12.41556 1988 ft 165 kts
2026-04-24 13:45 55.45006 12.41648 1983 ft 164 kts 353°
2026-04-24 13:46 55.46133 12.41423 1980 ft 162 kts 354°
2026-04-24 13:46 55.47199 12.42044 1994 ft 168 kts 26°
2026-04-24 13:46 55.48134 12.43303 1991 ft 169 kts 34°
2026-04-24 13:46 55.49023 12.44652 1986 ft 168 kts 34°
2026-04-24 13:47 55.49908 12.46013 1986 ft 166 kts 35°
2026-04-24 13:47 55.50765 12.47331 1998 ft 160 kts 34°
2026-04-24 13:47 55.51592 12.48599 1992 ft 154 kts 33°
2026-04-24 13:47 55.52389 12.49818 1871 ft 150 kts 33°
2026-04-24 13:48 55.53175 12.51022 1664 ft 150 kts 34°
2026-04-24 13:48 55.53948 12.52217 1449 ft 145 kts 33°
2026-04-24 13:48 55.54691 12.53364 1247 ft 137 kts 33°
2026-04-24 13:48 55.55379 12.54426 1066 ft 128 kts 32°
2026-04-24 13:49 55.56049 12.55456 888 ft 128 kts 34°
2026-04-24 13:49 55.56715 12.56483 701 ft 126 kts 36°
2026-04-24 13:49 55.57412 12.57563 529 ft 134 kts 35°
2026-04-24 13:49 55.58084 12.58596 314 ft 122 kts 35°
2026-04-24 13:50 55.58709 12.59550 214 ft 114 kts 38°
2026-04-24 13:50 55.59295 12.60462 51 ft 109 kts 37°
2026-04-24 13:50 55.59803 12.61248 20 ft 76 kts 42°
2026-04-24 13:50 55.60111 12.61727 28 ft 43 kts 41°
2026-04-24 13:51 55.60286 12.62001 24 ft 25 kts 40°
2026-04-24 13:51 55.60378 12.62139 22 ft 11 kts 39°
2026-04-24 13:51 55.60420 12.62195 26 ft 4 kts 34°
2026-04-24 13:51 55.60456 12.62235 27 ft 10 kts 29°
2026-04-24 13:52 55.60549 12.62308 26 ft 11 kts 18°
2026-04-24 13:52 55.60574 12.62319 27 ft 1 kts 13°
2026-04-24 13:52 55.60623 12.62340 27 ft 13 kts 11°
2026-04-24 13:52 55.60650 12.62350 26 ft 0 kts 11°
2026-04-24 13:53 55.60653 12.62351 26 ft 2 kts 11°
2026-04-24 13:53 55.60671 12.62358 26 ft 4 kts 11°
2026-04-24 13:54 55.60735 12.62382 24 ft 14 kts 15°
2026-04-24 13:54 55.60843 12.62488 26 ft 20 kts 42°
2026-04-24 13:54 55.60946 12.62644 24 ft 19 kts 41°
2026-04-24 13:54 55.61040 12.62789 23 ft 17 kts 41°
2026-04-24 13:55 55.61128 12.62925 24 ft 16 kts 41°
2026-04-24 13:55 55.61224 12.63073 22 ft 22 kts 41°
2026-04-24 13:55 55.61355 12.63277 24 ft 28 kts 41°
2026-04-24 13:55 55.61512 12.63519 26 ft 31 kts 41°
2026-04-24 13:56 55.61687 12.63788 21 ft 34 kts 41°
2026-04-24 13:56 55.61829 12.64009 24 ft 18 kts 41°
2026-04-24 13:56 55.61925 12.64117 22 ft 18 kts 26°
2026-04-24 13:56 55.62065 12.64232 21 ft 25 kts 25°
2026-04-24 13:57 55.62131 12.64288 23 ft 0 kts 26°
2026-04-24 13:58 55.62176 12.64326 22 ft 14 kts 26°
2026-04-24 13:58 55.62223 12.64373 20 ft 0 kts 27°
2026-04-24 13:59 55.62224 12.64374 20 ft 1 kts 27°
2026-04-24 13:59 55.62241 12.64392 19 ft 1 kts 33°
2026-04-24 13:59 55.62253 12.64406 21 ft 6 kts 34°